Location: Borovka
(49.7741°N, 14.5280°E)
Time: 15:47:56
(UTC+00:00)

Thor Agena Rocket - Pass Details

Date: 15 February 2026
Orbit: 755 x 801 km, 99.1° (Epoch: 7 March)

Event Time Altitude Azimuth Distance (km) Brightness Sun altitude
Rises 05:09:17 0° 20° (NNE) 3,313 7.0 -10.7°
Reaches altitude 10° 05:11:45 10° 27° (NNE) 2,383 6.3 -10.3°
Maximum altitude 05:16:46 43° 99° (E) 1,118 5.0 -9.5°
Drops below altitude 10° 05:21:44 10° 170° (S) 2,372 6.3 -8.7°
Sets 05:24:10 0° 177° (S) 3,297 6.9 -8.3°
